Location: *
(44.3925°N, 5.4708°E)
Time: 07:12:16
(UTC+00:00)

Terra - Pass Details

Date: 18 September 2019
Orbit: 701 x 703 km, 98.2° (Epoch: 21 October)

Event Time Altitude Azimuth Distance (km) Brightness Sun altitude
Exits shadow 20:07:01 12° 36° (NE) 2,067 4.2 -25.2°
Drops below altitude 10° 20:07:38 10° 29° (NNE) 2,180 4.4 -25.3°
Sets 20:10:55 0° 5° (N) 3,103 5.5 -25.8°
